When you browse on this site, cookies collect data to enhance your experience and personalize the content and advertising you see.
Visit our Privacy Policy to learn more. By continuing to use the site, you agree to this use of cookies and data.
  • In Sweden
  • List of Countries
  • For 7 days
  • Water Temperature
  • Satellite Maps
  • Weather Map
  • Weather Widgets
  • user-avatar
    Login

    Hourly Weather Chesham

    Today, 27 June, Thursday

    Time Temperature Precipitation Wind Pressure Humidity
    00:00 +12°C° 0 mm 5 mps 758 mmHg 89%
    01:00 +10°C° 0 mm 5 mps 758 mmHg 90%
    02:00 +10°C° 0 mm 6 mps 758 mmHg 91%
    03:00 +10°C° 0 mm 6 mps 758 mmHg 92%
    04:00 +10°C° 0 mm 6 mps 758 mmHg 89%
    05:00 +10°C° 0 mm 6 mps 758 mmHg 87%
    06:00 +11°C° 0 mm 6 mps 758 mmHg 85%
    07:00 +13°C° 0 mm 6 mps 758 mmHg 81%
    08:00 +15°C° 0 mm 6 mps 758 mmHg 76%
    09:00 +16°C° 0 mm 6 mps 758 mmHg 72%
    10:00 +17°C° 0 mm 6 mps 758 mmHg 71%
    11:00 +19°C° 0 mm 6 mps 758 mmHg 70%
    12:00 +21°C° 0 mm 6 mps 758 mmHg 68%
    13:00 +21°C° 0 mm 6 mps 758 mmHg 69%
    14:00 +21°C° 0 mm 7 mps 758 mmHg 69%
    15:00 +22°C° 0 mm 7 mps 757 mmHg 70%
    16:00 +21°C° 0 mm 6 mps 757 mmHg 71%
    17:00 +20°C° 0 mm 6 mps 757 mmHg 73%
    18:00 +19°C° 0 mm 6 mps 757 mmHg 75%
    19:00 +17°C° 0 mm 6 mps 757 mmHg 78%
    20:00 +15°C° 0 mm 6 mps 757 mmHg 80%
    21:00 +14°C° 0 mm 6 mps 757 mmHg 83%
    22:00 +13°C° 0 mm 6 mps 757 mmHg 85%
    23:00 +12°C° 0 mm 5 mps 757 mmHg 87%

    Tomorrow, 28 June, Friday

    Time Temperature Precipitation Wind Pressure Humidity
    00:00 +10°C° 0 mm 5 mps 757 mmHg 88%
    01:00 +10°C° 0 mm 5 mps 756 mmHg 89%
    02:00 +10°C° 0 mm 5 mps 756 mmHg 90%
    03:00 +9°C° 0 mm 5 mps 756 mmHg 91%
    04:00 +10°C° 0 mm 5 mps 756 mmHg 90%
    05:00 +12°C° 0 mm 5 mps 755 mmHg 89%
    06:00 +12°C° 0 mm 5 mps 755 mmHg 88%
    07:00 +14°C° 0 mm 5 mps 755 mmHg 84%
    08:00 +15°C° 0 mm 5 mps 755 mmHg 80%
    09:00 +17°C° 0 mm 5 mps 755 mmHg 76%
    10:00 +19°C° 0 mm 6 mps 755 mmHg 73%
    11:00 +20°C° 0 mm 6 mps 754 mmHg 70%
    12:00 +22°C° 0 mm 6 mps 754 mmHg 67%
    13:00 +22°C° 0 mm 6 mps 754 mmHg 66%
    14:00 +22°C° 0 mm 6 mps 754 mmHg 65%
    15:00 +22°C° 0 mm 6 mps 753 mmHg 63%
    16:00 +21°C° 0 mm 6 mps 753 mmHg 65%
    17:00 +20°C° 0 mm 5 mps 753 mmHg 67%
    18:00 +19°C° 0 mm 5 mps 752 mmHg 69%
    19:00 +17°C° 0 mm 5 mps 752 mmHg 72%
    20:00 +16°C° 0 mm 5 mps 752 mmHg 76%
    21:00 +14°C° 0 mm 5 mps 752 mmHg 79%
    22:00 +14°C° 0 mm 4 mps 752 mmHg 82%
    23:00 +14°C° 0 mm 4 mps 751 mmHg 84%

    Day after tomorrow, 29 June, Saturday

    Time Temperature Precipitation Wind Pressure Humidity
    00:00 +13°C° 0 mm 3 mps 751 mmHg 86%
    01:00 +13°C° 0 mm 3 mps 751 mmHg 88%
    02:00 +13°C° 0 mm 3 mps 750 mmHg 89%
    03:00 +13°C° 0 mm 3 mps 750 mmHg 90%
    04:00 +14°C° 0 mm 3 mps 750 mmHg 88%
    05:00 +16°C° 0 mm 3 mps 750 mmHg 86%
    06:00 +17°C° 0 mm 4 mps 749 mmHg 84%
    07:00 +19°C° 0 mm 4 mps 749 mmHg 80%
    08:00 +20°C° 0 mm 4 mps 749 mmHg 76%
    09:00 +22°C° 0 mm 4 mps 749 mmHg 73%
    10:00 +25°C° 0 mm 4 mps 748 mmHg 69%
    11:00 +26°C° 0 mm 4 mps 748 mmHg 65%
    12:00 +28°C° 0 mm 4 mps 748 mmHg 61%
    13:00 +28°C° 0 mm 4 mps 747 mmHg 60%
    14:00 +28°C° 0 mm 4 mps 747 mmHg 60%
    15:00 +28°C° 0 mm 5 mps 747 mmHg 59%
    16:00 +27°C° 0 mm 4 mps 746 mmHg 65%
    17:00 +26°C° 0 mm 4 mps 746 mmHg 70%
    18:00 +25°C° 0 mm 3 mps 746 mmHg 75%
    19:00 +24°C° 0 mm 3 mps 746 mmHg 80%
    20:00 +21°C° 0 mm 3 mps 746 mmHg 86%
    21:00 +20°C° 0 mm 3 mps 746 mmHg 91%
    22:00 +19°C° 0 mm 4 mps 746 mmHg 90%
    23:00 +18°C° 0 mm 4 mps 746 mmHg 89%

    30 June, Sunday

    Time Temperature Precipitation Wind Pressure Humidity
    00:00 +17°C° 0 mm 4 mps 746 mmHg 88%
    01:00 +15°C° 0 mm 4 mps 747 mmHg 89%
    02:00 +13°C° 0 mm 3 mps 747 mmHg 91%
    03:00 +12°C° 0 mm 3 mps 747 mmHg 93%
    04:00 +13°C° 0 mm 3 mps 747 mmHg 91%
    05:00 +13°C° 0 mm 3 mps 747 mmHg 89%
    06:00 +14°C° 0 mm 3 mps 748 mmHg 87%
    07:00 +16°C° 0 mm 3 mps 748 mmHg 83%
    08:00 +17°C° 0 mm 3 mps 748 mmHg 80%
    09:00 +19°C° 0 mm 3 mps 749 mmHg 76%
    10:00 +20°C° 0 mm 4 mps 749 mmHg 73%
    11:00 +21°C° 0 mm 4 mps 749 mmHg 70%
    12:00 +22°C° 0 mm 4 mps 749 mmHg 67%
    13:00 +22°C° 0 mm 5 mps 749 mmHg 67%
    14:00 +22°C° 0 mm 5 mps 749 mmHg 67%
    15:00 +22°C° 0 mm 5 mps 749 mmHg 67%
    16:00 +21°C° 0 mm 5 mps 749 mmHg 70%
    17:00 +21°C° 0 mm 5 mps 749 mmHg 72%
    18:00 +20°C° 0 mm 5 mps 749 mmHg 75%
    19:00 +17°C° 0 mm 5 mps 749 mmHg 79%
    20:00 +17°C° 0 mm 4 mps 749 mmHg 82%
    21:00 +14°C° 0 mm 4 mps 749 mmHg 86%
    22:00 +13°C° 0 mm 4 mps 749 mmHg 88%
    23:00 +13°C° 0 mm 4 mps 749 mmHg 89%

    1 July, Monday

    Time Temperature Precipitation Wind Pressure Humidity
    00:00 +12°C° 0 mm 4 mps 749 mmHg 91%
    01:00 +11°C° 0 mm 4 mps 749 mmHg 92%
    02:00 +11°C° 0 mm 4 mps 749 mmHg 94%
    03:00 +10°C° 0 mm 3 mps 749 mmHg 95%
    04:00 +11°C° 0 mm 4 mps 749 mmHg 91%
    05:00 +11°C° 0 mm 4 mps 750 mmHg 88%
    06:00 +12°C° 0 mm 4 mps 750 mmHg 84%
    07:00 +13°C° 0 mm 5 mps 750 mmHg 80%
    08:00 +14°C° 0 mm 5 mps 751 mmHg 76%
    09:00 +15°C° 0 mm 5 mps 751 mmHg 72%
    10:00 +15°C° 0 mm 5 mps 751 mmHg 71%
    11:00 +15°C° 0 mm 5 mps 751 mmHg 71%
    12:00 +15°C° 0 mm 5 mps 752 mmHg 71%
    13:00 +16°C° 0 mm 5 mps 751 mmHg 70%
    14:00 +16°C° 0 mm 5 mps 751 mmHg 70%
    15:00 +17°C° 0 mm 4 mps 751 mmHg 70%
    16:00 +17°C° 0 mm 4 mps 752 mmHg 72%
    17:00 +17°C° 0 mm 4 mps 752 mmHg 74%
    18:00 +17°C° 0 mm 3 mps 752 mmHg 75%
    19:00 +16°C° 0 mm 3 mps 752 mmHg 78%
    20:00 +14°C° 0 mm 3 mps 752 mmHg 81%
    21:00 +13°C° 0 mm 3 mps 752 mmHg 84%
    22:00 +13°C° 0 mm 3 mps 752 mmHg 86%
    23:00 +12°C° 0 mm 3 mps 753 mmHg 89%

    2 July, Tuesday

    Time Temperature Precipitation Wind Pressure Humidity
    00:00 +12°C° 0 mm 2 mps 753 mmHg 92%
    01:00 +10°C° 0 mm 3 mps 753 mmHg 92%
    02:00 +10°C° 0 mm 3 mps 753 mmHg 93%
    03:00 +9°C° 0 mm 3 mps 753 mmHg 93%
    04:00 +10°C° 0 mm 3 mps 753 mmHg 91%
    05:00 +10°C° 0 mm 3 mps 754 mmHg 89%
    06:00 +10°C° 0 mm 3 mps 754 mmHg 87%
    07:00 +11°C° 0 mm 4 mps 754 mmHg 86%
    08:00 +12°C° 0 mm 4 mps 754 mmHg 84%
    09:00 +14°C° 0 mm 4 mps 755 mmHg 83%
    10:00 +14°C° 0 mm 4 mps 755 mmHg 80%
    11:00 +15°C° 0 mm 4 mps 755 mmHg 78%
    12:00 +17°C° 0 mm 4 mps 755 mmHg 75%
    13:00 +17°C° 0 mm 3 mps 755 mmHg 74%
    14:00 +17°C° 0 mm 3 mps 755 mmHg 74%
    15:00 +17°C° 0 mm 3 mps 755 mmHg 73%
    16:00 +17°C° 0 mm 3 mps 755 mmHg 74%
    17:00 +16°C° 0 mm 3 mps 755 mmHg 75%
    18:00 +16°C° 0 mm 3 mps 755 mmHg 76%
    19:00 +14°C° 0 mm 3 mps 755 mmHg 78%
    20:00 +14°C° 0 mm 2 mps 755 mmHg 80%
    21:00 +12°C° 0 mm 2 mps 755 mmHg 82%
    22:00 +12°C° 0 mm 2 mps 755 mmHg 84%
    23:00 +10°C° 0 mm 2 mps 755 mmHg 86%
    Show more